Time,TemperatureF,DewpointF,PressureIn,WindDirection,WindDirectionDegrees,WindSpeedMPH,WindSpeedGustMPH,Humidity,HourlyPrecipIn,Conditions,Clouds,dailyrainin,SoftwareType,DateUTC
2013-05-19 00:02:00,40.1,33.1,30.20,North,0,0.4,2.2,76,0.00,,,0.00,WUHU216HW,2013-05-19 07:02:00,
2013-05-19 00:07:00,40.0,32.7,30.20,WNW,293,1.6,4.3,75,0.00,,,0.00,WUHU216HW,2013-05-19 07:07:00,
2013-05-19 00:12:00,39.6,32.3,30.21,NNW,338,0.4,4.3,75,0.00,,,0.00,WUHU216HW,2013-05-19 07:12:00,
2013-05-19 00:17:00,39.6,32.3,30.20,NNW,338,0.9,2.5,75,0.00,,,0.00,WUHU216HW,2013-05-19 07:17:00,
2013-05-19 00:22:00,39.6,32.3,30.20,SW,225,0.0,2.2,75,0.00,,,0.00,WUHU216HW,2013-05-19 07:22:00,
2013-05-19 00:27:00,39.6,32.7,30.20,WSW,248,2.9,2.9,76,0.00,,,0.00,WUHU216HW,2013-05-19 07:27:00,
2013-05-19 00:32:00,39.6,32.9,30.21,West,270,2.9,2.9,77,0.00,,,0.00,WUHU216HW,2013-05-19 07:32:00,
2013-05-19 00:37:00,39.4,32.8,30.21,SW,225,4.7,4.7,77,0.00,,,0.00,WUHU216HW,2013-05-19 07:37:00,
2013-05-19 00:42:00,39.6,32.7,30.20,SE,135,0.2,4.7,76,0.00,,,0.00,WUHU216HW,2013-05-19 07:42:00,
2013-05-19 00:47:00,39.8,32.8,30.21,North,0,0.4,3.4,76,0.00,,,0.00,WUHU216HW,2013-05-19 07:47:00,
2013-05-19 00:52:00,39.8,33.1,30.21,WNW,293,2.7,2.7,77,0.00,,,0.00,WUHU216HW,2013-05-19 07:52:00,
2013-05-19 00:58:00,39.8,32.8,30.21,SE,135,0.2,2.7,76,0.00,,,0.00,WUHU216HW,2013-05-19 07:58:00,
2013-05-19 01:03:00,39.8,32.8,30.21,West,270,0.2,2.0,76,0.00,,,0.00,WUHU216HW,2013-05-19 08:03:00,
2013-05-19 01:08:00,39.6,32.7,30.21,SW,225,1.8,1.8,76,0.00,,,0.00,WUHU216HW,2013-05-19 08:08:00,
2013-05-19 01:13:00,39.6,32.7,30.21,West,270,1.8,3.8,76,0.00,,,0.00,WUHU216HW,2013-05-19 08:13:00,
2013-05-19 01:18:00,39.4,32.5,30.21,WNW,293,1.1,3.8,76,0.00,,,0.00,WUHU216HW,2013-05-19 08:18:00,
2013-05-19 01:23:00,39.4,32.5,30.21,NNW,338,0.2,2.5,76,0.00,,,0.00,WUHU216HW,2013-05-19 08:23:00,
2013-05-19 01:28:00,39.4,32.8,30.21,West,270,0.4,1.1,77,0.00,,,0.00,WUHU216HW,2013-05-19 08:28:00,
2013-05-19 01:33:00,39.2,32.7,30.21,West,270,1.1,1.3,77,0.00,,,0.00,WUHU216HW,2013-05-19 08:33:00,
2013-05-19 01:38:00,39.2,32.7,30.21,South,180,1.3,2.2,77,0.00,,,0.00,WUHU216HW,2013-05-19 08:38:00,
2013-05-19 01:43:00,39.1,32.5,30.21,NNW,338,0.4,3.1,77,0.00,,,0.00,WUHU216HW,2013-05-19 08:43:00,
2013-05-19 01:48:00,39.1,32.8,30.21,North,0,0.0,3.1,78,0.00,,,0.00,WUHU216HW,2013-05-19 08:48:00,
2013-05-19 01:53:00,39.1,32.5,30.21,East,90,0.4,2.2,77,0.00,,,0.00,WUHU216HW,2013-05-19 08:53:00,
2013-05-19 01:58:00,38.9,32.3,30.22,WNW,293,2.2,2.2,77,0.00,,,0.00,WUHU216HW,2013-05-19 08:58:00,
2013-05-19 02:03:00,38.7,32.5,30.21,WNW,293,1.8,2.2,78,0.00,,,0.00,WUHU216HW,2013-05-19 09:03:00,
2013-05-19 02:08:00,38.5,32.3,30.22,WNW,293,0.0,4.3,78,0.00,,,0.00,WUHU216HW,2013-05-19 09:08:00,
2013-05-19 02:13:00,38.7,32.5,30.22,NNE,23,0.4,3.4,78,0.00,,,0.00,WUHU216HW,2013-05-19 09:13:00,
2013-05-19 02:19:00,38.5,32.3,30.22,WNW,293,0.2,2.7,78,0.00,,,0.00,WUHU216HW,2013-05-19 09:19:00,
2013-05-19 02:24:00,38.5,32.6,30.22,SW,225,1.6,3.8,79,0.00,,,0.00,WUHU216HW,2013-05-19 09:24:00,
2013-05-19 02:29:00,38.5,32.6,30.22,NNW,338,1.1,3.8,79,0.00,,,0.00,WUHU216HW,2013-05-19 09:29:00,
2013-05-19 02:34:00,38.5,32.6,30.22,NW,315,1.1,3.4,79,0.00,,,0.00,WUHU216HW,2013-05-19 09:34:00,
2013-05-19 02:39:00,38.5,32.6,30.22,WSW,248,0.4,3.6,79,0.00,,,0.00,WUHU216HW,2013-05-19 09:39:00,
2013-05-19 02:44:00,38.3,32.1,30.22,WSW,248,1.6,3.6,78,0.00,,,0.00,WUHU216HW,2013-05-19 09:44:00,
2013-05-19 02:49:00,38.2,32.0,30.22,North,0,0.7,3.8,78,0.00,,,0.00,WUHU216HW,2013-05-19 09:49:00,
2013-05-19 02:54:00,38.2,32.0,30.22,NNW,338,0.0,3.8,78,0.00,,,0.00,WUHU216HW,2013-05-19 09:54:00,
2013-05-19 02:59:00,38.2,32.2,30.22,WNW,293,3.4,3.4,79,0.00,,,0.00,WUHU216HW,2013-05-19 09:59:00,
2013-05-19 03:04:00,38.0,31.8,30.22,NNE,23,1.3,3.4,78,0.00,,,0.00,WUHU216HW,2013-05-19 10:04:00,
2013-05-19 03:09:00,37.8,31.9,30.22,WSW,248,2.5,3.1,79,0.00,,,0.00,WUHU216HW,2013-05-19 10:09:00,
2013-05-19 03:14:00,38.0,31.8,30.22,West,270,1.1,2.7,78,0.00,,,0.00,WUHU216HW,2013-05-19 10:14:00,
2013-05-19 03:19:00,37.8,31.9,30.22,NNW,338,0.9,2.9,79,0.00,,,0.00,WUHU216HW,2013-05-19 10:19:00,
2013-05-19 03:24:00,37.8,31.9,30.22,NW,315,0.4,2.9,79,0.00,,,0.00,WUHU216HW,2013-05-19 10:24:00,
2013-05-19 03:30:00,37.8,31.9,30.22,WSW,248,1.3,2.5,79,0.00,,,0.00,WUHU216HW,2013-05-19 10:30:00,
2013-05-19 03:35:00,37.8,31.9,30.23,NNW,338,0.7,2.5,79,0.00,,,0.00,WUHU216HW,2013-05-19 10:35:00,
2013-05-19 03:40:00,37.8,32.2,30.23,WNW,293,0.9,1.8,80,0.00,,,0.00,WUHU216HW,2013-05-19 10:40:00,
2013-05-19 03:45:00,37.8,32.2,30.23,West,270,2.5,2.5,80,0.00,,,0.00,WUHU216HW,2013-05-19 10:45:00,
2013-05-19 03:50:00,37.8,32.2,30.23,SW,225,3.4,3.4,80,0.00,,,0.00,WUHU216HW,2013-05-19 10:50:00,
2013-05-19 03:55:00,37.8,31.9,30.23,NW,315,2.5,3.4,79,0.00,,,0.00,WUHU216HW,2013-05-19 10:55:00,
2013-05-19 04:00:00,37.8,32.2,30.22,West,270,4.3,4.3,80,0.00,,,0.00,WUHU216HW,2013-05-19 11:00:00,
2013-05-19 04:05:00,37.8,32.2,30.23,WNW,293,5.4,5.4,80,0.00,,,0.00,WUHU216HW,2013-05-19 11:05:00,
2013-05-19 04:10:00,37.8,32.2,30.23,NNW,338,1.6,5.4,80,0.00,,,0.00,WUHU216HW,2013-05-19 11:10:00,
2013-05-19 04:15:00,37.8,32.2,30.23,West,270,3.8,3.8,80,0.00,,,0.00,WUHU216HW,2013-05-19 11:15:00,
2013-05-19 04:20:00,37.8,31.9,30.23,West,270,1.6,3.8,79,0.00,,,0.00,WUHU216HW,2013-05-19 11:20:00,
2013-05-19 04:25:00,37.8,31.9,30.23,NW,315,0.2,2.5,79,0.00,,,0.00,WUHU216HW,2013-05-19 11:25:00,
2013-05-19 04:30:00,37.8,31.9,30.23,NW,315,0.4,3.4,79,0.00,,,0.00,WUHU216HW,2013-05-19 11:30:00,
2013-05-19 04:35:00,37.6,32.0,30.23,West,270,3.4,3.4,80,0.00,,,0.00,WUHU216HW,2013-05-19 11:35:00,
2013-05-19 04:40:00,37.6,31.7,30.23,West,270,1.8,3.4,79,0.00,,,0.00,WUHU216HW,2013-05-19 11:40:00,
2013-05-19 04:45:00,37.4,31.5,30.23,NW,315,1.6,4.3,79,0.00,,,0.00,WUHU216HW,2013-05-19 11:45:00,
2013-05-19 04:50:00,37.4,31.5,30.23,NW,315,0.9,4.3,79,0.00,,,0.00,WUHU216HW,2013-05-19 11:50:00,
2013-05-19 04:55:00,37.4,31.9,30.24,WNW,293,1.1,4.3,80,0.00,,,0.00,WUHU216HW,2013-05-19 11:55:00,
2013-05-19 05:00:00,37.4,31.9,30.24,NW,315,0.4,4.5,80,0.00,,,0.00,WUHU216HW,2013-05-19 12:00:00,
2013-05-19 05:05:00,37.4,31.9,30.24,WNW,293,1.3,4.5,80,0.00,,,0.00,WUHU216HW,2013-05-19 12:05:00,
2013-05-19 05:10:00,37.4,31.9,30.24,West,270,4.3,4.3,80,0.00,,,0.00,WUHU216HW,2013-05-19 12:10:00,
2013-05-19 05:15:00,37.4,31.5,30.24,NNW,338,1.1,4.3,79,0.00,,,0.00,WUHU216HW,2013-05-19 12:15:00,
2013-05-19 05:20:00,37.4,31.5,30.25,West,270,1.1,4.0,79,0.00,,,0.00,WUHU216HW,2013-05-19 12:20:00,
2013-05-19 05:25:00,37.4,31.9,30.25,WSW,248,0.2,1.1,80,0.00,,,0.00,WUHU216HW,2013-05-19 12:25:00,
2013-05-19 05:30:00,37.4,31.5,30.24,West,270,0.7,1.6,79,0.00,,,0.00,WUHU216HW,2013-05-19 12:30:00,
2013-05-19 05:35:00,37.4,31.5,30.24,WNW,293,0.4,1.6,79,0.00,,,0.00,WUHU216HW,2013-05-19 12:35:00,
2013-05-19 05:40:00,37.4,31.5,30.24,WSW,248,1.8,2.7,79,0.00,,,0.00,WUHU216HW,2013-05-19 12:40:00,
2013-05-19 05:45:00,37.3,31.3,30.24,NNE,23,0.7,6.5,79,0.00,,,0.00,WUHU216HW,2013-05-19 12:45:00,
2013-05-19 05:50:00,37.1,31.1,30.24,SSW,203,0.2,6.5,79,0.00,,,0.00,WUHU216HW,2013-05-19 12:50:00,
2013-05-19 05:55:00,37.1,31.1,30.25,SE,135,0.7,0.9,79,0.00,,,0.00,WUHU216HW,2013-05-19 12:55:00,
2013-05-19 06:00:00,37.1,31.5,30.25,WSW,248,0.0,1.8,80,0.00,,,0.00,WUHU216HW,2013-05-19 13:00:00,
2013-05-19 06:05:00,37.1,31.5,30.25,SSW,203,1.1,1.8,80,0.00,,,0.00,WUHU216HW,2013-05-19 13:05:00,
2013-05-19 06:10:00,37.1,31.5,30.25,WSW,248,1.1,2.0,80,0.00,,,0.00,WUHU216HW,2013-05-19 13:10:00,
2013-05-19 06:15:00,37.1,31.5,30.25,NW,315,0.9,2.0,80,0.00,,,0.00,WUHU216HW,2013-05-19 13:15:00,
2013-05-19 06:21:00,37.3,31.7,30.25,NNW,338,0.9,1.1,80,0.00,,,0.00,WUHU216HW,2013-05-19 13:21:00,
2013-05-19 06:26:00,37.3,31.7,30.25,West,270,1.3,2.5,80,0.00,,,0.00,WUHU216HW,2013-05-19 13:26:00,
2013-05-19 06:31:00,37.4,31.9,30.25,NW,315,0.7,2.5,80,0.00,,,0.00,WUHU216HW,2013-05-19 13:31:00,
2013-05-19 06:36:00,37.6,32.0,30.25,West,270,1.1,3.1,80,0.00,,,0.00,WUHU216HW,2013-05-19 13:36:00,
2013-05-19 06:41:00,37.8,32.2,30.25,NW,315,2.5,3.1,80,0.00,,,0.00,WUHU216HW,2013-05-19 13:41:00,
2013-05-19 06:46:00,37.8,32.2,30.26,NW,315,0.4,3.6,80,0.00,,,0.00,WUHU216HW,2013-05-19 13:46:00,
2013-05-19 06:51:00,38.0,32.4,30.25,SW,225,0.4,3.6,80,0.00,,,0.00,WUHU216HW,2013-05-19 13:51:00,
2013-05-19 06:56:00,38.2,32.6,30.25,SSW,203,1.6,1.6,80,0.00,,,0.00,WUHU216HW,2013-05-19 13:56:00,
2013-05-19 07:01:00,38.5,32.6,30.25,WNW,293,1.1,4.7,79,0.00,,,0.00,WUHU216HW,2013-05-19 14:01:00,
2013-05-19 07:06:00,38.5,32.6,30.25,SE,135,0.2,4.7,79,0.00,,,0.00,WUHU216HW,2013-05-19 14:06:00,
2013-05-19 07:11:00,38.9,32.9,30.25,WSW,248,0.4,2.0,79,0.00,,,0.00,WUHU216HW,2013-05-19 14:11:00,
2013-05-19 07:16:00,39.1,33.1,30.25,SW,225,2.7,2.7,79,0.00,,,0.00,WUHU216HW,2013-05-19 14:16:00,
2013-05-19 07:21:00,39.2,33.3,30.26,WNW,293,4.0,4.0,79,0.00,,,0.00,WUHU216HW,2013-05-19 14:21:00,
2013-05-19 07:26:00,39.4,33.5,30.26,SW,225,0.2,4.0,79,0.00,,,0.00,WUHU216HW,2013-05-19 14:26:00,
2013-05-19 07:31:00,39.6,33.7,30.26,WNW,293,0.2,1.6,79,0.00,,,0.00,WUHU216HW,2013-05-19 14:31:00,
2013-05-19 07:36:00,40.0,33.9,30.26,WSW,248,2.0,2.0,79,0.00,,,0.00,WUHU216HW,2013-05-19 14:36:00,
2013-05-19 07:41:00,40.0,33.9,30.26,SW,225,4.3,4.3,79,0.00,,,0.00,WUHU216HW,2013-05-19 14:41:00,
2013-05-19 07:46:00,40.1,34.1,30.26,WSW,248,1.3,4.3,79,0.00,,,0.00,WUHU216HW,2013-05-19 14:46:00,
2013-05-19 07:51:00,40.5,34.5,30.26,SSW,203,1.6,3.4,79,0.00,,,0.00,WUHU216HW,2013-05-19 14:51:00,
2013-05-19 07:57:00,40.7,34.7,30.27,SW,225,0.9,2.0,79,0.00,,,0.00,WUHU216HW,2013-05-19 14:57:00,
2013-05-19 08:02:00,40.7,34.7,30.27,WSW,248,1.1,2.9,79,0.00,,,0.00,WUHU216HW,2013-05-19 15:02:00,
2013-05-19 08:07:00,41.0,34.7,30.27,SSE,158,0.0,2.9,78,0.00,,,0.00,WUHU216HW,2013-05-19 15:07:00,
2013-05-19 08:12:00,41.4,35.0,30.27,SSE,158,0.4,1.6,78,0.00,,,0.00,WUHU216HW,2013-05-19 15:12:00,
2013-05-19 08:17:00,41.8,35.0,30.27,WSW,248,1.1,3.6,77,0.00,,,0.00,WUHU216HW,2013-05-19 15:17:00,
2013-05-19 08:22:00,42.1,35.4,30.27,SW,225,2.0,3.6,77,0.00,,,0.00,WUHU216HW,2013-05-19 15:22:00,
2013-05-19 08:27:00,42.7,35.9,30.27,WSW,248,1.1,3.6,77,0.00,,,0.00,WUHU216HW,2013-05-19 15:27:00,
2013-05-19 08:32:00,43.2,35.8,30.27,West,270,1.8,3.6,75,0.00,,,0.00,WUHU216HW,2013-05-19 15:32:00,
2013-05-19 08:37:00,43.6,35.8,30.27,NW,315,0.0,4.5,74,0.00,,,0.00,WUHU216HW,2013-05-19 15:37:00,
2013-05-19 08:42:00,43.7,36.0,30.27,WSW,248,1.8,4.5,74,0.00,,,0.00,WUHU216HW,2013-05-19 15:42:00,
2013-05-19 08:47:00,43.9,36.2,30.27,SSW,203,1.3,1.8,74,0.00,,,0.00,WUHU216HW,2013-05-19 15:47:00,
2013-05-19 08:52:00,44.3,36.5,30.27,South,180,1.8,1.8,74,0.00,,,0.00,WUHU216HW,2013-05-19 15:52:00,
2013-05-19 08:57:00,44.6,36.8,30.27,SW,225,4.7,4.7,74,0.00,,,0.00,WUHU216HW,2013-05-19 15:57:00,
2013-05-19 09:02:00,45.2,37.0,30.27,SSW,203,1.1,4.7,73,0.00,,,0.00,WUHU216HW,2013-05-19 16:02:00,
2013-05-19 09:07:00,45.7,37.5,30.27,SSE,158,3.1,3.1,73,0.00,,,0.00,WUHU216HW,2013-05-19 16:07:00,
2013-05-19 09:12:00,46.3,37.8,30.27,SSW,203,2.5,3.6,72,0.00,,,0.00,WUHU216HW,2013-05-19 16:12:00,
2013-05-19 09:17:00,46.4,37.6,30.27,SW,225,1.1,3.6,71,0.00,,,0.00,WUHU216HW,2013-05-19 16:17:00,
2013-05-19 09:22:00,46.8,37.9,30.27,SSW,203,1.8,1.8,71,0.00,,,0.00,WUHU216HW,2013-05-19 16:22:00,
2013-05-19 09:27:00,47.2,36.7,30.27,NW,315,2.9,2.9,67,0.00,,,0.00,WUHU216HW,2013-05-19 16:27:00,
2013-05-19 09:32:00,47.3,36.2,30.27,NW,315,1.8,2.9,65,0.00,,,0.00,WUHU216HW,2013-05-19 16:32:00,
2013-05-19 09:37:00,47.2,36.7,30.27,WNW,293,1.8,2.5,67,0.00,,,0.00,WUHU216HW,2013-05-19 16:37:00,
2013-05-19 09:43:00,47.5,37.4,30.28,South,180,1.8,2.5,68,0.00,,,0.00,WUHU216HW,2013-05-19 16:43:00,
2013-05-19 09:48:00,47.9,37.8,30.27,South,180,2.2,2.5,68,0.00,,,0.00,WUHU216HW,2013-05-19 16:48:00,
2013-05-19 09:53:00,48.6,38.5,30.27,NNE,23,2.5,4.0,68,0.00,,,0.00,WUHU216HW,2013-05-19 16:53:00,
2013-05-19 09:58:00,49.1,37.1,30.27,NW,315,4.7,4.7,63,0.00,,,0.00,WUHU216HW,2013-05-19 16:58:00,
2013-05-19 10:03:00,48.8,36.7,30.27,NW,315,1.1,4.7,63,0.00,,,0.00,WUHU216HW,2013-05-19 17:03:00,
2013-05-19 10:08:00,49.1,37.4,30.27,North,0,1.6,2.9,64,0.00,,,0.00,WUHU216HW,2013-05-19 17:08:00,
2013-05-19 10:13:00,49.5,37.8,30.27,NE,45,4.9,4.9,64,0.00,,,0.00,WUHU216HW,2013-05-19 17:13:00,
2013-05-19 10:18:00,49.3,37.6,30.27,ENE,68,2.7,4.9,64,0.00,,,0.00,WUHU216HW,2013-05-19 17:18:00,
2013-05-19 10:23:00,49.7,38.3,30.27,South,180,0.4,4.0,65,0.00,,,0.00,WUHU216HW,2013-05-19 17:23:00,
2013-05-19 10:28:00,50.0,38.7,30.27,SSE,158,4.0,4.0,65,0.00,,,0.00,WUHU216HW,2013-05-19 17:28:00,
2013-05-19 10:33:00,50.4,38.6,30.27,NE,45,0.0,4.0,64,0.00,,,0.00,WUHU216HW,2013-05-19 17:33:00,
2013-05-19 10:38:00,50.8,38.2,30.27,NNW,338,1.6,3.4,62,0.00,,,0.00,WUHU216HW,2013-05-19 17:38:00,
2013-05-19 10:43:00,51.3,39.5,30.27,South,180,1.8,3.4,64,0.00,,,0.00,WUHU216HW,2013-05-19 17:43:00,
2013-05-19 10:48:00,52.0,40.1,30.27,NE,45,3.6,5.1,64,0.00,,,0.00,WUHU216HW,2013-05-19 17:48:00,
2013-05-19 10:53:00,52.2,40.0,30.27,ENE,68,2.0,5.1,63,0.00,,,0.00,WUHU216HW,2013-05-19 17:53:00,
2013-05-19 10:58:00,52.2,40.0,30.27,South,180,1.8,3.4,63,0.00,,,0.00,WUHU216HW,2013-05-19 17:58:00,
2013-05-19 11:03:00,51.8,37.0,30.27,West,270,2.5,6.9,57,0.00,,,0.00,WUHU216HW,2013-05-19 18:03:00,
2013-05-19 11:08:00,51.7,38.2,30.27,SSE,158,1.8,6.9,60,0.00,,,0.00,WUHU216HW,2013-05-19 18:08:00,
2013-05-19 11:13:00,51.8,39.2,30.27,North,0,1.8,3.1,62,0.00,,,0.00,WUHU216HW,2013-05-19 18:13:00,
2013-05-19 11:18:00,52.2,39.2,30.27,NE,45,3.6,9.2,61,0.00,,,0.00,WUHU216HW,2013-05-19 18:18:00,
2013-05-19 11:23:00,52.6,38.6,30.26,SSE,158,2.0,9.2,59,0.00,,,0.00,WUHU216HW,2013-05-19 18:23:00,
2013-05-19 11:28:00,53.3,40.1,30.26,SE,135,0.9,4.3,61,0.00,,,0.00,WUHU216HW,2013-05-19 18:28:00,
2013-05-19 11:33:00,54.0,40.0,30.26,East,90,1.8,4.3,59,0.00,,,0.00,WUHU216HW,2013-05-19 18:33:00,
2013-05-19 11:38:00,53.6,38.3,30.26,SE,135,2.5,7.6,56,0.00,,,0.00,WUHU216HW,2013-05-19 18:38:00,
2013-05-19 11:43:00,53.6,39.3,30.26,NE,45,3.4,7.6,58,0.00,,,0.00,WUHU216HW,2013-05-19 18:43:00,
2013-05-19 11:48:00,53.6,38.7,30.26,SE,135,2.5,3.6,57,0.00,,,0.00,WUHU216HW,2013-05-19 18:48:00,
2013-05-19 11:53:00,54.0,40.0,30.26,NNE,23,2.2,10.7,59,0.00,,,0.00,WUHU216HW,2013-05-19 18:53:00,
2013-05-19 11:58:00,54.2,40.6,30.26,NNW,338,0.9,10.7,60,0.00,,,0.00,WUHU216HW,2013-05-19 18:58:00,
2013-05-19 12:03:00,54.5,41.0,30.26,ENE,68,6.5,7.6,60,0.00,,,0.00,WUHU216HW,2013-05-19 19:03:00,
2013-05-19 12:08:00,54.5,39.1,30.26,NNE,23,3.4,7.6,56,0.00,,,0.00,WUHU216HW,2013-05-19 19:08:00,
2013-05-19 12:13:00,54.0,40.5,30.26,SSE,158,0.2,5.6,60,0.00,,,0.00,WUHU216HW,2013-05-19 19:13:00,
2013-05-19 12:18:00,53.6,40.1,30.26,North,0,1.8,2.5,60,0.00,,,0.00,WUHU216HW,2013-05-19 19:18:00,
2013-05-19 12:23:00,54.0,40.0,30.26,NNE,23,5.1,6.9,59,0.00,,,0.00,WUHU216HW,2013-05-19 19:23:00,
2013-05-19 12:28:00,54.4,38.4,30.25,NNW,338,4.9,6.9,55,0.00,,,0.00,WUHU216HW,2013-05-19 19:28:00,
2013-05-19 12:33:00,54.5,41.0,30.26,NNW,338,1.1,6.9,60,0.00,,,0.00,WUHU216HW,2013-05-19 19:33:00,
2013-05-19 12:38:00,54.4,40.3,30.25,WNW,293,1.1,10.7,59,0.00,,,0.00,WUHU216HW,2013-05-19 19:38:00,
2013-05-19 12:43:00,54.5,41.0,30.25,North,0,2.5,10.7,60,0.00,,,0.00,WUHU216HW,2013-05-19 19:43:00,
2013-05-19 12:48:00,54.9,40.3,30.25,ENE,68,3.8,4.5,58,0.00,,,0.00,WUHU216HW,2013-05-19 19:48:00,
2013-05-19 12:53:00,55.1,38.6,30.25,NNE,23,3.4,4.5,54,0.00,,,0.00,WUHU216HW,2013-05-19 19:53:00,
2013-05-19 12:58:00,55.1,38.2,30.25,West,270,2.5,3.4,53,0.00,,,0.00,WUHU216HW,2013-05-19 19:58:00,
2013-05-19 13:03:00,55.8,38.9,30.25,West,270,0.9,4.9,53,0.00,,,0.00,WUHU216HW,2013-05-19 20:03:00,
2013-05-19 13:08:00,56.0,38.5,30.25,NNE,23,2.7,4.9,52,0.00,,,0.00,WUHU216HW,2013-05-19 20:08:00,
2013-05-19 13:13:00,55.8,37.9,30.25,WNW,293,1.1,5.1,51,0.00,,,0.00,WUHU216HW,2013-05-19 20:13:00,
2013-05-19 13:18:00,55.8,39.3,30.25,NNE,23,4.3,5.1,54,0.00,,,0.00,WUHU216HW,2013-05-19 20:18:00,
2013-05-19 13:23:00,56.3,35.1,30.25,SSE,158,2.5,7.2,45,0.00,,,0.00,WUHU216HW,2013-05-19 20:23:00,
2013-05-19 13:28:00,56.9,37.4,30.24,ESE,113,2.0,7.2,48,0.00,,,0.00,WUHU216HW,2013-05-19 20:28:00,
2013-05-19 13:33:00,57.1,38.2,30.24,ENE,68,2.0,6.0,49,0.00,,,0.00,WUHU216HW,2013-05-19 20:33:00,
2013-05-19 13:38:00,57.2,36.5,30.24,ESE,113,1.8,5.8,46,0.00,,,0.00,WUHU216HW,2013-05-19 20:38:00,
2013-05-19 13:43:00,57.6,37.4,30.24,NNW,338,1.1,4.9,47,0.00,,,0.00,WUHU216HW,2013-05-19 20:43:00,
2013-05-19 13:48:00,58.1,37.4,30.24,SSW,203,1.8,4.9,46,0.00,,,0.00,WUHU216HW,2013-05-19 20:48:00,
2013-05-19 13:53:00,58.7,38.4,30.24,NNW,338,1.8,7.2,47,0.00,,,0.00,WUHU216HW,2013-05-19 20:53:00,
2013-05-19 13:58:00,59.0,37.1,30.24,WNW,293,1.8,11.4,44,0.00,,,0.00,WUHU216HW,2013-05-19 20:58:00,
2013-05-19 14:03:00,58.7,37.3,30.24,WNW,293,6.9,11.4,45,0.00,,,0.00,WUHU216HW,2013-05-19 21:03:00,
2013-05-19 14:08:00,58.7,37.3,30.24,NNE,23,1.6,10.3,45,0.00,,,0.00,WUHU216HW,2013-05-19 21:08:00,
2013-05-19 14:13:00,58.7,37.9,30.24,SSE,158,2.0,9.2,46,0.00,,,0.00,WUHU216HW,2013-05-19 21:13:00,
2013-05-19 14:18:00,59.4,39.1,30.24,West,270,2.2,4.3,47,0.00,,,0.00,WUHU216HW,2013-05-19 21:18:00,
2013-05-19 14:23:00,59.8,38.3,30.24,NNE,23,2.5,4.7,45,0.00,,,0.00,WUHU216HW,2013-05-19 21:23:00,
2013-05-19 14:28:00,59.2,37.2,30.24,ESE,113,1.3,5.4,44,0.00,,,0.00,WUHU216HW,2013-05-19 21:28:00,
2013-05-19 14:33:00,58.9,36.9,30.24,South,180,4.0,8.5,44,0.00,,,0.00,WUHU216HW,2013-05-19 21:33:00,
2013-05-19 14:38:00,58.9,35.7,30.24,WNW,293,7.6,8.5,42,0.00,,,0.00,WUHU216HW,2013-05-19 21:38:00,
2013-05-19 14:43:00,59.2,37.2,30.24,NW,315,2.5,7.6,44,0.00,,,0.00,WUHU216HW,2013-05-19 21:43:00,
2013-05-19 14:48:00,59.2,37.2,30.24,NNE,23,4.9,7.6,44,0.00,,,0.00,WUHU216HW,2013-05-19 21:48:00,
2013-05-19 14:53:00,58.7,36.2,30.24,WNW,293,3.4,7.6,43,0.00,,,0.00,WUHU216HW,2013-05-19 21:53:00,
2013-05-19 14:58:00,58.5,36.5,30.24,SW,225,2.2,5.1,44,0.00,,,0.00,WUHU216HW,2013-05-19 21:58:00,
2013-05-19 15:03:00,58.7,37.3,30.24,NNE,23,0.4,4.5,45,0.00,,,0.00,WUHU216HW,2013-05-19 22:03:00,
2013-05-19 15:08:00,59.0,37.6,30.24,NNE,23,0.4,5.1,45,0.00,,,0.00,WUHU216HW,2013-05-19 22:08:00,
2013-05-19 15:14:00,59.6,37.0,30.24,East,90,1.6,6.3,43,0.00,,,0.00,WUHU216HW,2013-05-19 22:14:00,
2013-05-19 15:19:00,60.1,37.4,30.24,ENE,68,1.8,6.3,43,0.00,,,0.00,WUHU216HW,2013-05-19 22:19:00,
2013-05-19 15:24:00,60.1,36.3,30.24,North,0,4.0,9.2,41,0.00,,,0.00,WUHU216HW,2013-05-19 22:24:00,
2013-05-19 15:29:00,59.6,37.0,30.24,South,180,1.6,9.2,43,0.00,,,0.00,WUHU216HW,2013-05-19 22:29:00,
2013-05-19 15:34:00,60.1,37.4,30.24,WNW,293,2.9,4.7,43,0.00,,,0.00,WUHU216HW,2013-05-19 22:34:00,
2013-05-19 15:39:00,60.3,35.9,30.24,NNW,338,5.6,8.9,40,0.00,,,0.00,WUHU216HW,2013-05-19 22:39:00,
2013-05-19 15:44:00,60.5,36.6,30.24,SW,225,1.8,8.9,41,0.00,,,0.00,WUHU216HW,2013-05-19 22:44:00,
2013-05-19 15:49:00,60.8,36.4,30.24,West,270,5.4,5.4,40,0.00,,,0.00,WUHU216HW,2013-05-19 22:49:00,
2013-05-19 15:54:00,60.3,35.2,30.24,NW,315,6.9,8.9,39,0.00,,,0.00,WUHU216HW,2013-05-19 22:54:00,
2013-05-19 15:59:00,59.9,36.1,30.24,NNE,23,4.7,8.9,41,0.00,,,0.00,WUHU216HW,2013-05-19 22:59:00,
2013-05-19 16:04:00,60.3,35.2,30.24,West,270,6.0,6.9,39,0.00,,,0.00,WUHU216HW,2013-05-19 23:04:00,
2013-05-19 16:09:00,60.7,35.5,30.24,WSW,248,4.3,8.3,39,0.00,,,0.00,WUHU216HW,2013-05-19 23:09:00,
2013-05-19 16:14:00,62.3,37.6,30.24,NW,315,4.3,8.3,40,0.00,,,0.00,WUHU216HW,2013-05-19 23:14:00,
2013-05-19 16:19:00,64.4,37.4,30.24,NNE,23,2.5,5.8,37,0.00,,,0.00,WUHU216HW,2013-05-19 23:19:00,
2013-05-19 16:24:00,66.2,36.2,30.24,NW,315,5.1,5.8,33,0.00,,,0.00,WUHU216HW,2013-05-19 23:24:00,
2013-05-19 16:29:00,65.7,37.2,30.24,NNW,338,4.5,5.1,35,0.00,,,0.00,WUHU216HW,2013-05-19 23:29:00,
2013-05-19 16:34:00,67.3,37.1,30.24,South,180,0.7,6.0,33,0.00,,,0.00,WUHU216HW,2013-05-19 23:34:00,
2013-05-19 16:39:00,67.3,36.4,30.24,North,0,4.7,6.0,32,0.00,,,0.00,WUHU216HW,2013-05-19 23:39:00,
2013-05-19 16:44:00,67.9,36.8,30.24,West,270,1.1,4.7,32,0.00,,,0.00,WUHU216HW,2013-05-19 23:44:00,
2013-05-19 16:49:00,68.9,36.3,30.24,NW,315,5.8,6.0,30,0.00,,,0.00,WUHU216HW,2013-05-19 23:49:00,
2013-05-19 16:54:00,68.2,35.7,30.24,WSW,248,2.5,6.9,30,0.00,,,0.00,WUHU216HW,2013-05-19 23:54:00,
2013-05-19 16:59:00,67.0,37.5,30.24,East,90,1.1,6.9,34,0.00,,,0.00,WUHU216HW,2013-05-19 23:59:00,
2013-05-19 17:04:00,67.3,36.4,30.23,NNW,338,2.0,7.6,32,0.00,,,0.00,WUHU216HW,2013-05-20 00:04:00,
2013-05-19 17:09:00,69.1,39.4,30.23,ENE,68,2.7,7.6,34,0.00,,,0.00,WUHU216HW,2013-05-20 00:09:00,
2013-05-19 17:14:00,71.3,40.6,30.23,NE,45,1.8,4.9,33,0.00,,,0.00,WUHU216HW,2013-05-20 00:14:00,
2013-05-19 17:19:00,72.0,33.8,30.23,NNW,338,6.3,6.3,25,0.00,,,0.00,WUHU216HW,2013-05-20 00:19:00,
2013-05-19 17:24:00,68.8,36.8,30.23,West,270,1.8,8.5,31,0.00,,,0.00,WUHU216HW,2013-05-20 00:24:00,
2013-05-19 17:29:00,69.5,38.3,30.23,SSE,158,4.0,8.5,32,0.00,,,0.00,WUHU216HW,2013-05-20 00:29:00,
2013-05-19 17:34:00,69.1,37.9,30.23,South,180,1.6,4.3,32,0.00,,,0.00,WUHU216HW,2013-05-20 00:34:00,
2013-05-19 17:39:00,68.8,38.4,30.23,SSE,158,1.1,4.0,33,0.00,,,0.00,WUHU216HW,2013-05-20 00:39:00,
2013-05-19 17:44:00,67.3,37.1,30.23,ENE,68,1.6,7.6,33,0.00,,,0.00,WUHU216HW,2013-05-20 00:44:00,
2013-05-19 17:49:00,65.7,34.3,30.23,NNE,23,4.7,7.6,31,0.00,,,0.00,WUHU216HW,2013-05-20 00:49:00,
2013-05-19 17:54:00,64.1,34.9,30.23,NNW,338,3.4,4.7,34,0.00,,,0.00,WUHU216HW,2013-05-20 00:54:00,
2013-05-19 17:59:00,63.0,34.0,30.22,SSE,158,1.8,3.8,34,0.00,,,0.00,WUHU216HW,2013-05-20 00:59:00,
2013-05-19 18:04:00,62.3,34.0,30.23,NW,315,3.1,3.8,35,0.00,,,0.00,WUHU216HW,2013-05-20 01:04:00,
2013-05-19 18:09:00,61.6,34.8,30.23,East,90,2.0,4.0,37,0.00,,,0.00,WUHU216HW,2013-05-20 01:09:00,
2013-05-19 18:14:00,61.0,34.4,30.23,West,270,0.7,4.0,37,0.00,,,0.00,WUHU216HW,2013-05-20 01:14:00,
2013-05-19 18:19:00,60.7,34.0,30.23,NE,45,4.5,10.5,37,0.00,,,0.00,WUHU216HW,2013-05-20 01:19:00,
2013-05-19 18:24:00,60.1,34.3,30.23,NW,315,2.0,10.5,38,0.00,,,0.00,WUHU216HW,2013-05-20 01:24:00,
2013-05-19 18:29:00,59.8,34.7,30.23,SE,135,0.4,5.1,39,0.00,,,0.00,WUHU216HW,2013-05-20 01:29:00,
2013-05-19 18:34:00,59.8,34.7,30.23,WNW,293,1.3,5.1,39,0.00,,,0.00,WUHU216HW,2013-05-20 01:34:00,
2013-05-19 18:39:00,59.8,34.7,30.23,SSW,203,1.1,7.4,39,0.00,,,0.00,WUHU216HW,2013-05-20 01:39:00,
2013-05-19 18:44:00,59.8,35.4,30.23,NNE,23,2.2,7.4,40,0.00,,,0.00,WUHU216HW,2013-05-20 01:44:00,
2013-05-19 18:50:00,59.8,36.0,30.23,SE,135,0.4,5.8,41,0.00,,,0.00,WUHU216HW,2013-05-20 01:50:00,
2013-05-19 18:55:00,59.9,36.1,30.23,NW,315,2.0,4.5,41,0.00,,,0.00,WUHU216HW,2013-05-20 01:55:00,
2013-05-19 19:00:00,59.4,35.6,30.23,ENE,68,1.8,8.1,41,0.00,,,0.00,WUHU216HW,2013-05-20 02:00:00,
2013-05-19 19:05:00,58.9,35.2,30.23,SW,225,0.9,8.1,41,0.00,,,0.00,WUHU216HW,2013-05-20 02:05:00,
2013-05-19 19:10:00,58.7,35.0,30.24,South,180,2.5,6.0,41,0.00,,,0.00,WUHU216HW,2013-05-20 02:10:00,
2013-05-19 19:15:00,58.3,35.3,30.24,WNW,293,2.0,6.0,42,0.00,,,0.00,WUHU216HW,2013-05-20 02:15:00,
2013-05-19 19:20:00,58.0,35.5,30.24,East,90,0.7,8.1,43,0.00,,,0.00,WUHU216HW,2013-05-20 02:20:00,
2013-05-19 19:25:00,57.6,35.7,30.24,NW,315,2.9,8.1,44,0.00,,,0.00,WUHU216HW,2013-05-20 02:25:00,
2013-05-19 19:30:00,57.2,35.5,30.25,East,90,0.9,5.1,44,0.00,,,0.00,WUHU216HW,2013-05-20 02:30:00,
2013-05-19 19:35:00,56.9,35.1,30.25,SW,225,0.7,4.5,44,0.00,,,0.00,WUHU216HW,2013-05-20 02:35:00,
2013-05-19 19:40:00,56.7,34.9,30.25,NW,315,1.6,2.7,44,0.00,,,0.00,WUHU216HW,2013-05-20 02:40:00,
2013-05-19 19:45:00,56.5,35.3,30.25,North,0,1.3,2.7,45,0.00,,,0.00,WUHU216HW,2013-05-20 02:45:00,
2013-05-19 19:50:00,56.0,34.8,30.25,NE,45,1.8,2.7,45,0.00,,,0.00,WUHU216HW,2013-05-20 02:50:00,
2013-05-19 19:55:00,55.6,34.5,30.25,WNW,293,1.8,3.1,45,0.00,,,0.00,WUHU216HW,2013-05-20 02:55:00,
2013-05-19 20:00:00,55.3,34.7,30.25,North,0,2.5,3.1,46,0.00,,,0.00,WUHU216HW,2013-05-20 03:00:00,
2013-05-19 20:05:00,54.9,34.4,30.24,NNE,23,0.4,3.8,46,0.00,,,0.00,WUHU216HW,2013-05-20 03:05:00,
2013-05-19 20:10:00,54.5,34.6,30.25,SE,135,0.9,3.8,47,0.00,,,0.00,WUHU216HW,2013-05-20 03:10:00,
2013-05-19 20:15:00,54.4,33.8,30.25,NNE,23,2.0,2.5,46,0.00,,,0.00,WUHU216HW,2013-05-20 03:15:00,
2013-05-19 20:20:00,54.0,34.1,30.25,ENE,68,1.1,2.0,47,0.00,,,0.00,WUHU216HW,2013-05-20 03:20:00,
2013-05-19 20:25:00,53.6,33.8,30.25,NE,45,1.1,2.5,47,0.00,,,0.00,WUHU216HW,2013-05-20 03:25:00,
2013-05-19 20:30:00,53.5,33.7,30.24,North,0,0.0,1.3,47,0.00,,,0.00,WUHU216HW,2013-05-20 03:30:00,
2013-05-19 20:35:00,53.1,33.8,30.25,ESE,113,0.4,2.0,48,0.00,,,0.00,WUHU216HW,2013-05-20 03:35:00,
2013-05-19 20:41:00,52.9,33.7,30.25,NW,315,0.7,2.0,48,0.00,,,0.00,WUHU216HW,2013-05-20 03:41:00,
2013-05-19 20:46:00,52.6,33.9,30.25,WNW,293,0.2,2.0,49,0.00,,,0.00,WUHU216HW,2013-05-20 03:46:00,
2013-05-19 20:51:00,52.2,33.6,30.25,North,0,0.0,0.9,49,0.00,,,0.00,WUHU216HW,2013-05-20 03:51:00,
2013-05-19 20:56:00,51.8,33.3,30.25,ESE,113,0.9,1.8,49,0.00,,,0.00,WUHU216HW,2013-05-20 03:56:00,
2013-05-19 21:01:00,51.7,33.7,30.25,ENE,68,2.0,2.0,50,0.00,,,0.00,WUHU216HW,2013-05-20 04:01:00,
2013-05-19 21:06:00,51.5,33.5,30.25,NNW,338,0.4,2.0,50,0.00,,,0.00,WUHU216HW,2013-05-20 04:06:00,
2013-05-19 21:11:00,51.3,33.4,30.25,SW,225,0.4,1.6,50,0.00,,,0.00,WUHU216HW,2013-05-20 04:11:00,
2013-05-19 21:16:00,50.8,33.8,30.25,NW,315,0.9,1.3,52,0.00,,,0.00,WUHU216HW,2013-05-20 04:16:00,
2013-05-19 21:21:00,50.4,33.5,30.25,NNW,338,0.4,1.3,52,0.00,,,0.00,WUHU216HW,2013-05-20 04:21:00,
2013-05-19 21:26:00,50.0,33.6,30.25,NNW,338,0.7,1.3,53,0.00,,,0.00,WUHU216HW,2013-05-20 04:26:00,
2013-05-19 21:31:00,49.9,33.8,30.25,NW,315,1.6,2.0,54,0.00,,,0.00,WUHU216HW,2013-05-20 04:31:00,
2013-05-19 21:36:00,49.5,33.9,30.25,WNW,293,1.1,2.2,55,0.00,,,0.00,WUHU216HW,2013-05-20 04:36:00,
2013-05-19 21:41:00,49.1,34.1,30.25,West,270,0.4,2.2,56,0.00,,,0.00,WUHU216HW,2013-05-20 04:41:00,
2013-05-19 21:46:00,49.0,34.8,30.25,WNW,293,0.7,1.8,58,0.00,,,0.00,WUHU216HW,2013-05-20 04:46:00,
2013-05-19 21:51:00,48.6,34.0,30.25,NNE,23,0.0,1.8,57,0.00,,,0.00,WUHU216HW,2013-05-20 04:51:00,
2013-05-19 21:56:00,48.6,33.6,30.25,West,270,0.0,2.5,56,0.00,,,0.00,WUHU216HW,2013-05-20 04:56:00,
2013-05-19 22:01:00,48.6,34.9,30.25,WNW,293,1.1,2.5,59,0.00,,,0.00,WUHU216HW,2013-05-20 05:01:00,
2013-05-19 22:06:00,48.4,34.8,30.25,NW,315,0.7,1.1,59,0.00,,,0.00,WUHU216HW,2013-05-20 05:06:00,
2013-05-19 22:11:00,48.2,34.2,30.25,SSW,203,0.0,1.1,58,0.00,,,0.00,WUHU216HW,2013-05-20 05:11:00,
2013-05-19 22:16:00,48.1,34.0,30.25,South,180,0.0,0.9,58,0.00,,,0.00,WUHU216HW,2013-05-20 05:16:00,
2013-05-19 22:21:00,47.7,34.1,30.26,WNW,293,0.4,0.9,59,0.00,,,0.00,WUHU216HW,2013-05-20 05:21:00,
2013-05-19 22:26:00,47.5,34.7,30.26,NNW,338,0.4,0.9,61,0.00,,,0.00,WUHU216HW,2013-05-20 05:26:00,
2013-05-19 22:32:00,47.5,34.4,30.26,North,0,0.4,2.2,60,0.00,,,0.00,WUHU216HW,2013-05-20 05:32:00,
2013-05-19 22:37:00,47.5,34.4,30.26,North,0,0.0,2.9,60,0.00,,,0.00,WUHU216HW,2013-05-20 05:37:00,
2013-05-19 22:42:00,47.3,34.2,30.26,WNW,293,0.2,2.9,60,0.00,,,0.00,WUHU216HW,2013-05-20 05:42:00,
2013-05-19 22:47:00,47.2,34.0,30.26,ENE,68,1.8,1.8,60,0.00,,,0.00,WUHU216HW,2013-05-20 05:47:00,
2013-05-19 22:52:00,47.2,34.4,30.26,East,90,0.0,1.8,61,0.00,,,0.00,WUHU216HW,2013-05-20 05:52:00,
2013-05-19 22:57:00,47.0,33.8,30.26,WSW,248,0.9,1.6,60,0.00,,,0.00,WUHU216HW,2013-05-20 05:57:00,
2013-05-19 23:02:00,46.4,33.3,30.26,NW,315,0.0,1.6,60,0.00,,,0.00,WUHU216HW,2013-05-20 06:02:00,
2013-05-19 23:07:00,46.1,33.4,30.26,West,270,0.2,1.3,61,0.00,,,0.00,WUHU216HW,2013-05-20 06:07:00,
2013-05-19 23:12:00,45.7,33.0,30.26,West,270,0.2,1.3,61,0.00,,,0.00,WUHU216HW,2013-05-20 06:12:00,
2013-05-19 23:17:00,45.5,32.9,30.26,NW,315,0.4,1.1,61,0.00,,,0.00,WUHU216HW,2013-05-20 06:17:00,
2013-05-19 23:22:00,45.4,33.1,30.26,NW,315,0.2,0.4,62,0.00,,,0.00,WUHU216HW,2013-05-20 06:22:00,
2013-05-19 23:27:00,45.0,32.8,30.26,WNW,293,0.4,0.4,62,0.00,,,0.00,WUHU216HW,2013-05-20 06:27:00,
2013-05-19 23:32:00,44.8,32.6,30.26,WNW,293,0.0,0.4,62,0.00,,,0.00,WUHU216HW,2013-05-20 06:32:00,
2013-05-19 23:37:00,44.5,32.7,30.26,NW,315,0.2,0.2,63,0.00,,,0.00,WUHU216HW,2013-05-20 06:37:00,
2013-05-19 23:42:00,44.3,32.5,30.26,North,0,0.4,0.7,63,0.00,,,0.00,WUHU216HW,2013-05-20 06:42:00,
2013-05-19 23:47:00,44.3,32.9,30.26,NNW,338,0.0,0.7,64,0.00,,,0.00,WUHU216HW,2013-05-20 06:47:00,
2013-05-19 23:52:00,44.3,32.9,30.26,WSW,248,0.0,0.7,64,0.00,,,0.00,WUHU216HW,2013-05-20 06:52:00,
2013-05-19 23:57:00,44.1,32.7,30.25,NNW,338,0.4,0.7,64,0.00,,,0.00,WUHU216HW,2013-05-20 06:57:00,